Location: Dob?e?
(49.9411°N, 15.1496°E)
Time: 18:38:07
(UTC+00:00)

NOAA 18 - Pass Details

Date: 23 October 2021
Orbit: 840 x 861 km, 99.0° (Epoch: 01 December)

Event Time Altitude Azimuth Distance (km) Brightness Sun altitude
Exits shadow 20:56:13 13° 333° (NNW) 2,319 8.0 -45.9°
Drops below altitude 10° 20:56:43 10° 335° (NNW) 2,508 8.2 -45.9°
Sets 20:59:12 0° 341° (NNW) 3,451 9.0 -46.2°
